Rbgn^[z[y[W
メイン
   新天体発見情報
     Comet C/2025 D1 (Groeller)
投稿するにはまず登録を

スレッド表示 | 古いものから 前のトピック | 次のトピック | 下へ
投稿者 スレッド
佐藤裕久
投稿日時: 2025-3-3 13:03
モデレータ
登録日: 2005-6-12
居住地: 日本
投稿: 2687
オンライン
Comet C/2025 D1 (Groeller)

Hannes Groeller (アリゾナ大学月惑星研究所, LPL)の通報によると、2月20日、Kitt Peakにある
2.25-m Bok 反射望遠鏡で得たCCD画像から彗星を発見した。
30-秒露出スタックでは、集光した3"のコマが見え、4"のファジーな層がある。
小惑星センターのPCCP webpageに公表後、S. Deen  (Simi Valley, カリフォルニア州, 米国)は、
2024-2025年の後の観測を見つけた後、2018年と2019年に同じBok反射望遠鏡で得た多数のアーカ
イブ画像で彗星を同定し、2022年の以前の観測も見つけたと書いている。
M. Jaegerによると、2025年2月22.0日UT、G. Rhemann、E. Prosperiと彼が、Martinsberg, Oed
(オーストリア)の0.35-m f/4.2 反射望遠鏡で得た30枚、70-秒CMOS露出では、20.2等、12"のコマ
が見え、p.a. 140°に6"のコマがある。

彗星機能の報告は次のとおり、

OC   Date        Reporter            Coma    Tail   PA   Comet     Date
                                                        (T/P)   Reported
V00  2018-06-06  S. Deen             3".5                 T   2025-02-21.44
V00  2018-06-07  S. Deen             2".7                 P   2025-02-21.44
V00  2018-06-09  S. Deen             3".1                 P   2025-02-21.44
V00  2018-06-18  S. Deen             2".7                 T   2025-02-21.44
V00  2019-02-09  S. Deen             3"                   T   2025-02-21.44
V00  2019-02-12  S. Deen             2".7                 T   2025-02-21.44
T14  2022-02-02  S. Deen             2".6      2"  230    T   2025-02-21.44
T09  2022-05-30  S. Deen             2".3      2"  120    T   2025-02-21.44
V00  2025-02-20  H. Groeller         3"                   T   2025-02-20.36
K77  2025-02-21  R. Fichtl           8"                   T   2025-02-22.44
G00  2025-02-21  M. Jaeger          12"        6"  140    T   2025-02-22.32

発見位置は次のとおり(PCCP C11KVH5)、

     2025 UT             R.A. (2000) Decl.       Mag.   Observer
     Feb. 20.32842    9 19 56.45   +42 09 00.2   20.6   Groeller
          20.33404    9 19 56.29   +42 09 00.0   20.5     "
          20.33965    9 19 56.15   +42 08 59.8   20.8     "
          20.34526    9 19 56.03   +42 08 59.6   20.7     "

Deenが見つけた2024-2025年の位置は次のとおり、

     2024 UT             R.A. (2000) Decl.
     Apr. 14.18844    9 15 02.10   +48 39 36.8
          14.19409    9 15 02.12   +48 39 35.9
          14.19975    9 15 02.16   +48 39 34.9
          14.20541    9 15 02.09   +48 39 35.1
     June 19.15722    9 16 35.37   +45 10 55.4
          19.16157    9 16 35.48   +45 10 53.1
          19.16591    9 16 35.59   +45 10 53.1
          19.17025    9 16 35.52   +45 10 52.0
     Nov. 12.47039    9 46 20.99   +41 21 20.2
          12.47561    9 46 21.06   +41 21 20.1
          12.48081    9 46 21.02   +41 21 19.7
          12.48601    9 46 21.00   +41 21 20.2
     Dec. 10.42253    9 43 36.72   +41 41 39.8
          10.42776    9 43 36.71   +41 41 39.5
          10.43301    9 43 36.68   +41 41 40.5
          10.43825    9 43 36.66   +41 41 40.5

     2025 UT             R.A. (2000) Decl.
     Jan. 20.32361    9 31 53.15   +42 13 06.3
          20.32885    9 31 52.97   +42 13 06.6
          20.33408    9 31 52.81   +42 13 06.2
          20.33932    9 31 52.71   +42 13 06.8
     Feb.  8.14911    9 24 39.08   +42 14 53.7
           8.15426    9 24 39.00   +42 14 53.6
           8.15941    9 24 38.84   +42 14 53.1
           8.16455    9 24 38.81   +42 14 53.7

MPCの双曲線軌道要素、位置推算表は次のとおり、

Orbital elements:
    C/2025 D1 (Groeller)                                                        
Epoch 2025 May 5.0 TT = JDT 2460800.5                                           
T 2028 May 19.91996 TT                                  Veres                   
q  14.1190387            (2000.0)            P               Q                  
z  -0.0002068      Peri.  185.88892     -0.68434692     -0.00042783             
 +/-0.0000007      Node   312.89770     +0.70301613     +0.26497146             
e   1.0029198      Incl.   84.46653     +0.19348800     -0.96425616             
From 34 observations 2018 June 6-2025 Feb. 22, mean residual 0".4.              
                                                                                
Ephemeris:
Date    TT    R. A. (2000) Decl.     Delta      r    Elong.  Phase   m1
2025 01 23    09 30 53.5 +42 14 04  14.2797 15.1623   152.9     1.7  18.8
...
2025 02 07    09 25 06.1 +42 15 09  14.2514 15.1378   153.1     1.7  18.8
...
2025 02 15    09 21 59.0 +42 12 18  14.2632 15.1248   149.8     1.9  18.8
...
2025 02 21    09 19 41.2 +42 08 30  14.2840 15.1152   146.1     2.1  18.8
2025 02 22    09 19 18.6 +42 07 44  14.2884 15.1135   145.5     2.1  18.8
2025 02 23    09 18 56.1 +42 06 55  14.2931 15.1119   144.8     2.2  18.8
...
2025 03 01    09 16 44.3 +42 01 10  14.3268 15.1023   140.3     2.4  18.8
...
2025 03 09    09 13 58.9 +41 51 15  14.3858 15.0896   133.8     2.7  18.8
...
2025 03 24    09 09 31.3 +41 26 09  14.5335 15.0658   120.6     3.3  18.8

(MPEC 2025-D83、CBET 5509)

スレッド表示 | 古いものから 前のトピック | 次のトピック | トップ

投稿するにはまず登録を
 
© 1999 Tsutomu Seki.